Year,Month,Day,Hour,Minute,Value (Times are PST for temperature in C)
2016,08,17,00,00,13.30
2016,08,17,00,01,13.30
2016,08,17,00,02,13.30
2016,08,17,00,03,13.30
2016,08,17,00,04,13.30
2016,08,17,00,05,13.30
2016,08,17,00,06,13.20
2016,08,17,00,07,13.20
2016,08,17,00,08,13.20
2016,08,17,00,09,13.20
2016,08,17,00,10,13.20
2016,08,17,00,11,13.20
2016,08,17,00,12,13.20
2016,08,17,00,13,13.20
2016,08,17,00,14,13.20
2016,08,17,00,15,13.20
2016,08,17,00,16,13.20
2016,08,17,00,17,13.10
2016,08,17,00,18,13.10
2016,08,17,00,19,13.10
2016,08,17,00,20,13.10
2016,08,17,00,21,13.10
2016,08,17,00,22,13.10
2016,08,17,00,23,13.10
2016,08,17,00,24,13.10
2016,08,17,00,25,13.10
2016,08,17,00,26,13.10
2016,08,17,00,27,13.10
2016,08,17,00,28,13.10
2016,08,17,00,29,13.10
2016,08,17,00,30,13.00
2016,08,17,00,31,13.00
2016,08,17,00,32,13.00
2016,08,17,00,33,13.00
2016,08,17,00,34,13.00
2016,08,17,00,35,13.00
2016,08,17,00,36,13.00
2016,08,17,00,37,12.90
2016,08,17,00,38,12.90
2016,08,17,00,39,12.90
2016,08,17,00,40,12.90
2016,08,17,00,41,12.90
2016,08,17,00,42,12.90
2016,08,17,00,43,12.90
2016,08,17,00,44,12.80
2016,08,17,00,45,12.80
2016,08,17,00,46,12.80
2016,08,17,00,47,12.80
2016,08,17,00,48,12.80
2016,08,17,00,49,12.80
2016,08,17,00,50,12.80
2016,08,17,00,51,12.70
2016,08,17,00,52,12.70
2016,08,17,00,53,12.70
2016,08,17,00,54,12.70
2016,08,17,00,55,12.70
2016,08,17,00,56,12.70
2016,08,17,00,57,12.60
2016,08,17,00,58,12.60
2016,08,17,00,59,12.60
2016,08,17,01,00,12.60
2016,08,17,01,01,12.60
2016,08,17,01,02,12.60
2016,08,17,01,03,12.60
2016,08,17,01,04,12.50
2016,08,17,01,05,12.50
2016,08,17,01,06,12.50
2016,08,17,01,07,12.40
2016,08,17,01,08,12.40
2016,08,17,01,09,12.40
2016,08,17,01,10,12.40
2016,08,17,01,11,12.40
2016,08,17,01,12,12.40
2016,08,17,01,13,12.40
2016,08,17,01,14,12.40
2016,08,17,01,15,12.30
2016,08,17,01,16,12.30
2016,08,17,01,17,12.30
2016,08,17,01,18,12.30
2016,08,17,01,19,12.30
2016,08,17,01,20,12.20
2016,08,17,01,21,12.20
2016,08,17,01,22,12.20
2016,08,17,01,23,12.20
2016,08,17,01,24,12.20
2016,08,17,01,25,12.10
2016,08,17,01,26,12.10
2016,08,17,01,27,12.10
2016,08,17,01,28,12.10
2016,08,17,01,29,12.10
2016,08,17,01,30,12.10
2016,08,17,01,31,12.10
2016,08,17,01,32,12.10
2016,08,17,01,33,12.10
2016,08,17,01,34,12.10
2016,08,17,01,35,12.10
2016,08,17,01,36,12.00
2016,08,17,01,37,12.00
2016,08,17,01,38,12.00
2016,08,17,01,39,11.90
2016,08,17,01,40,11.90
2016,08,17,01,41,11.90
2016,08,17,01,42,11.90
2016,08,17,01,43,11.90
2016,08,17,01,44,11.90
2016,08,17,01,45,11.90
2016,08,17,01,46,11.90
2016,08,17,01,47,11.90
2016,08,17,01,48,11.90
2016,08,17,01,49,11.90
2016,08,17,01,50,11.90
2016,08,17,01,51,11.80
2016,08,17,01,52,11.80
2016,08,17,01,53,11.80
2016,08,17,01,54,11.80
2016,08,17,01,55,11.80
2016,08,17,01,56,11.80
2016,08,17,01,57,11.80
2016,08,17,01,58,11.80
2016,08,17,01,59,11.80
2016,08,17,02,00,11.80
2016,08,17,02,01,11.80
2016,08,17,02,02,11.80
2016,08,17,02,03,11.80
2016,08,17,02,04,11.80
2016,08,17,02,05,11.80
2016,08,17,02,06,11.80
2016,08,17,02,07,11.80
2016,08,17,02,08,11.80
2016,08,17,02,09,11.80
2016,08,17,02,10,11.80
2016,08,17,02,11,11.80
2016,08,17,02,12,11.80
2016,08,17,02,13,11.70
2016,08,17,02,14,11.70
2016,08,17,02,15,11.70
2016,08,17,02,16,11.70
2016,08,17,02,17,11.70
2016,08,17,02,18,11.70
2016,08,17,02,19,11.70
2016,08,17,02,20,11.70
2016,08,17,02,21,11.70
2016,08,17,02,22,11.70
2016,08,17,02,23,11.70
2016,08,17,02,24,11.70
2016,08,17,02,25,11.70
2016,08,17,02,26,11.70
2016,08,17,02,27,11.60
2016,08,17,02,28,11.60
2016,08,17,02,29,11.60
2016,08,17,02,30,11.60
2016,08,17,02,31,11.50
2016,08,17,02,32,11.50
2016,08,17,02,33,11.50
2016,08,17,02,34,11.50
2016,08,17,02,35,11.50
2016,08,17,02,36,11.40
2016,08,17,02,37,11.40
2016,08,17,02,38,11.40
2016,08,17,02,39,11.40
2016,08,17,02,40,11.30
2016,08,17,02,41,11.30
2016,08,17,02,42,11.30
2016,08,17,02,43,11.30
2016,08,17,02,44,11.30
2016,08,17,02,45,11.30
2016,08,17,02,46,11.30
2016,08,17,02,47,11.30
2016,08,17,02,48,11.30
2016,08,17,02,49,11.30
2016,08,17,02,50,11.30
2016,08,17,02,51,11.30
2016,08,17,02,52,11.30
2016,08,17,02,53,11.30
2016,08,17,02,54,11.30
2016,08,17,02,55,11.20
2016,08,17,02,56,11.20
2016,08,17,02,57,11.20
2016,08,17,02,58,11.20
2016,08,17,02,59,11.20
2016,08,17,03,00,11.20
2016,08,17,03,01,11.20
2016,08,17,03,02,11.20
2016,08,17,03,03,11.20
2016,08,17,03,04,11.20
2016,08,17,03,05,11.20
2016,08,17,03,06,11.20
2016,08,17,03,07,11.20
2016,08,17,03,08,11.20
2016,08,17,03,09,11.20
2016,08,17,03,10,11.20
2016,08,17,03,11,11.20
2016,08,17,03,12,11.20
2016,08,17,03,13,11.20
2016,08,17,03,14,11.20
2016,08,17,03,15,11.20
2016,08,17,03,16,11.20
2016,08,17,03,17,11.20
2016,08,17,03,18,11.20
2016,08,17,03,19,11.10
2016,08,17,03,20,11.10
2016,08,17,03,21,11.10
2016,08,17,03,22,11.10
2016,08,17,03,23,11.10
2016,08,17,03,24,11.10
2016,08,17,03,25,11.10
2016,08,17,03,26,11.10
2016,08,17,03,27,11.10
2016,08,17,03,28,11.10
2016,08,17,03,29,11.10
2016,08,17,03,30,11.10
2016,08,17,03,31,11.10
2016,08,17,03,32,11.00
2016,08,17,03,33,11.00
2016,08,17,03,34,11.00
2016,08,17,03,35,11.00
2016,08,17,03,36,11.00
2016,08,17,03,37,11.00
2016,08,17,03,38,10.90
2016,08,17,03,39,10.90
2016,08,17,03,40,10.90
2016,08,17,03,41,10.90
2016,08,17,03,42,10.90
2016,08,17,03,43,10.90
2016,08,17,03,44,10.90
2016,08,17,03,45,10.90
2016,08,17,03,46,10.90
2016,08,17,03,47,10.80
2016,08,17,03,48,10.80
2016,08,17,03,49,10.80
2016,08,17,03,50,10.80
2016,08,17,03,51,10.80
2016,08,17,03,52,10.80
2016,08,17,03,53,10.80
2016,08,17,03,54,10.70
2016,08,17,03,55,10.70
2016,08,17,03,56,10.70
2016,08,17,03,57,10.70
2016,08,17,03,58,10.70
2016,08,17,03,59,10.70
2016,08,17,04,00,10.70
2016,08,17,04,01,10.70
2016,08,17,04,02,10.70
2016,08,17,04,03,10.70
2016,08,17,04,04,10.70
2016,08,17,04,05,10.70
2016,08,17,04,06,10.70
2016,08,17,04,07,10.70
2016,08,17,04,08,10.70
2016,08,17,04,09,10.70
2016,08,17,04,10,10.60
2016,08,17,04,11,10.60
2016,08,17,04,12,10.60
2016,08,17,04,13,10.60
2016,08,17,04,14,10.60
2016,08,17,04,15,10.60
2016,08,17,04,16,10.60
2016,08,17,04,17,10.60
2016,08,17,04,18,10.50
2016,08,17,04,19,10.50
2016,08,17,04,20,10.50
2016,08,17,04,21,10.40
2016,08,17,04,22,10.40
2016,08,17,04,23,10.40
2016,08,17,04,24,10.40
2016,08,17,04,25,10.40
2016,08,17,04,26,10.40
2016,08,17,04,27,10.40
2016,08,17,04,28,10.30
2016,08,17,04,29,10.30
2016,08,17,04,30,10.30
2016,08,17,04,31,10.30
2016,08,17,04,32,10.30
2016,08,17,04,33,10.30
2016,08,17,04,34,10.30
2016,08,17,04,35,10.30
2016,08,17,04,36,10.30
2016,08,17,04,37,10.30
2016,08,17,04,38,10.30
2016,08,17,04,39,10.30
2016,08,17,04,40,10.30
2016,08,17,04,41,10.30
2016,08,17,04,42,10.30
2016,08,17,04,43,10.30
2016,08,17,04,44,10.30
2016,08,17,04,45,10.30
2016,08,17,04,46,10.30
2016,08,17,04,47,10.30
2016,08,17,04,48,10.30
2016,08,17,04,49,10.30
2016,08,17,04,50,10.30
2016,08,17,04,51,10.30
2016,08,17,04,52,10.30
2016,08,17,04,53,10.20
2016,08,17,04,54,10.30
2016,08,17,04,55,10.30
2016,08,17,04,56,10.30
2016,08,17,04,57,10.30
2016,08,17,04,58,10.30
2016,08,17,04,59,10.30
2016,08,17,05,00,10.30
2016,08,17,05,01,10.30
2016,08,17,05,02,10.30
2016,08,17,05,03,10.30
2016,08,17,05,04,10.30
2016,08,17,05,05,10.30
2016,08,17,05,06,10.30
2016,08,17,05,07,10.20
2016,08,17,05,08,10.20
2016,08,17,05,09,10.20
2016,08,17,05,10,10.20
2016,08,17,05,11,10.20
2016,08,17,05,12,10.20
2016,08,17,05,13,10.10
2016,08,17,05,14,10.10
2016,08,17,05,15,10.10
2016,08,17,05,16,10.10
2016,08,17,05,17,10.10
2016,08,17,05,18,10.10
2016,08,17,05,19,10.10
2016,08,17,05,20,10.10
2016,08,17,05,21,10.10
2016,08,17,05,22,10.10
2016,08,17,05,23,10.10
2016,08,17,05,24,10.10
2016,08,17,05,25,10.20
2016,08,17,05,26,10.20
2016,08,17,05,27,10.20
2016,08,17,05,28,10.20
2016,08,17,05,29,10.20
2016,08,17,05,30,10.30
2016,08,17,05,31,10.30
2016,08,17,05,32,10.30
2016,08,17,05,33,10.30
2016,08,17,05,34,10.30
2016,08,17,05,35,10.30
2016,08,17,05,36,10.40
2016,08,17,05,37,10.40
2016,08,17,05,38,10.40
2016,08,17,05,39,10.50
2016,08,17,05,40,10.50
2016,08,17,05,41,10.50
2016,08,17,05,42,10.50
2016,08,17,05,43,10.50
2016,08,17,05,44,10.60
2016,08,17,05,45,10.60
2016,08,17,05,46,10.50
2016,08,17,05,47,10.50
2016,08,17,05,48,10.50
2016,08,17,05,49,10.50
2016,08,17,05,50,10.50
2016,08,17,05,51,10.50
2016,08,17,05,52,10.50
2016,08,17,05,53,10.50
2016,08,17,05,54,10.50
2016,08,17,05,55,10.50
2016,08,17,05,56,10.50
2016,08,17,05,57,10.50
2016,08,17,05,58,10.60
2016,08,17,05,59,10.60
2016,08,17,06,00,10.60
2016,08,17,06,01,10.60
2016,08,17,06,02,10.60
2016,08,17,06,03,10.60
2016,08,17,06,04,10.70
2016,08,17,06,05,10.70
2016,08,17,06,06,10.70
2016,08,17,06,07,10.70
2016,08,17,06,08,10.70
2016,08,17,06,09,10.70
2016,08,17,06,10,10.70
2016,08,17,06,11,10.70
2016,08,17,06,12,10.70
2016,08,17,06,13,10.70
2016,08,17,06,14,10.80
2016,08,17,06,15,10.80
2016,08,17,06,16,10.80
2016,08,17,06,17,10.90
2016,08,17,06,18,10.90
2016,08,17,06,19,10.90
2016,08,17,06,20,10.90
2016,08,17,06,21,11.00
2016,08,17,06,22,11.00
2016,08,17,06,23,11.00
2016,08,17,06,24,11.00
2016,08,17,06,25,11.00
2016,08,17,06,26,11.00
2016,08,17,06,27,11.00
2016,08,17,06,28,10.90
2016,08,17,06,29,10.90
2016,08,17,06,30,10.90
2016,08,17,06,31,10.90
2016,08,17,06,32,10.90
2016,08,17,06,33,10.80
2016,08,17,06,34,10.80
2016,08,17,06,35,10.80
2016,08,17,06,36,10.80
2016,08,17,06,37,10.80
2016,08,17,06,38,10.80
2016,08,17,06,39,10.80
2016,08,17,06,40,10.80
2016,08,17,06,41,10.80
2016,08,17,06,42,10.80
2016,08,17,06,43,10.80
2016,08,17,06,44,10.80
2016,08,17,06,45,10.80
2016,08,17,06,46,10.80
2016,08,17,06,47,10.90
2016,08,17,06,48,10.90
2016,08,17,06,49,11.00
2016,08,17,06,50,11.00
2016,08,17,06,51,11.10
2016,08,17,06,52,11.10
2016,08,17,06,53,11.00
2016,08,17,06,54,11.00
2016,08,17,06,55,10.90
2016,08,17,06,56,10.90
2016,08,17,06,57,10.90
2016,08,17,06,58,10.90
2016,08,17,06,59,10.80
2016,08,17,07,00,10.80
2016,08,17,07,01,10.80
2016,08,17,07,02,10.80
2016,08,17,07,03,10.80
2016,08,17,07,04,10.80
2016,08,17,07,05,10.80
2016,08,17,07,06,10.80
2016,08,17,07,07,10.80
2016,08,17,07,08,10.80
2016,08,17,07,09,10.80
2016,08,17,07,10,10.80
2016,08,17,07,11,10.80
2016,08,17,07,12,10.80
2016,08,17,07,13,10.80
2016,08,17,07,14,10.80
2016,08,17,07,15,10.80
2016,08,17,07,16,10.90
2016,08,17,07,17,10.90
2016,08,17,07,18,10.90
2016,08,17,07,19,10.90
2016,08,17,07,20,10.90
2016,08,17,07,21,11.00
2016,08,17,07,22,11.00
2016,08,17,07,23,11.10
2016,08,17,07,24,11.10
2016,08,17,07,25,11.10
2016,08,17,07,26,11.10
2016,08,17,07,27,11.20
2016,08,17,07,28,11.20
2016,08,17,07,29,11.20
2016,08,17,07,30,11.20
2016,08,17,07,31,11.30
2016,08,17,07,32,11.30
2016,08,17,07,33,11.30
2016,08,17,07,34,11.30
2016,08,17,07,35,11.30
2016,08,17,07,36,11.40
2016,08,17,07,37,11.40
2016,08,17,07,38,11.40
2016,08,17,07,39,11.30
2016,08,17,07,40,11.40
2016,08,17,07,41,11.40
2016,08,17,07,42,11.40
2016,08,17,07,43,11.40
2016,08,17,07,44,11.50
2016,08,17,07,45,11.50
2016,08,17,07,46,11.60
2016,08,17,07,47,11.60
2016,08,17,07,48,11.60
2016,08,17,07,49,11.70
2016,08,17,07,50,11.70
2016,08,17,07,51,11.70
2016,08,17,07,52,11.70
2016,08,17,07,53,11.70
2016,08,17,07,54,11.60
2016,08,17,07,55,11.70
2016,08,17,07,56,11.70
2016,08,17,07,57,11.70
2016,08,17,07,58,11.70
2016,08,17,07,59,11.70
2016,08,17,08,00,11.70
2016,08,17,08,01,11.70
2016,08,17,08,02,11.80
2016,08,17,08,03,11.80
2016,08,17,08,04,11.80
2016,08,17,08,05,11.80
2016,08,17,08,06,11.80
2016,08,17,08,07,11.80
2016,08,17,08,08,11.80
2016,08,17,08,09,11.80
2016,08,17,08,10,11.80
2016,08,17,08,11,11.80
2016,08,17,08,12,11.80
2016,08,17,08,13,11.80
2016,08,17,08,14,11.80
2016,08,17,08,15,11.90
2016,08,17,08,16,12.00
2016,08,17,08,17,12.00
2016,08,17,08,18,12.10
2016,08,17,08,19,12.20
2016,08,17,08,20,12.20
2016,08,17,08,21,12.20
2016,08,17,08,22,12.20
2016,08,17,08,23,12.20
2016,08,17,08,24,12.20
2016,08,17,08,25,12.20
2016,08,17,08,26,12.20
2016,08,17,08,27,12.20
2016,08,17,08,28,12.20
2016,08,17,08,29,12.20
2016,08,17,08,30,12.20
2016,08,17,08,31,12.20
2016,08,17,08,32,12.20
2016,08,17,08,33,12.30
2016,08,17,08,34,12.20
2016,08,17,08,35,12.30
2016,08,17,08,36,12.30
2016,08,17,08,37,12.30
2016,08,17,08,38,12.30
2016,08,17,08,39,12.40
2016,08,17,08,40,12.40
2016,08,17,08,41,12.50
2016,08,17,08,42,12.60
2016,08,17,08,43,12.70
2016,08,17,08,44,12.80
2016,08,17,08,45,12.80
2016,08,17,08,46,12.90
2016,08,17,08,47,13.00
2016,08,17,08,48,13.10
2016,08,17,08,49,13.20
2016,08,17,08,50,13.20
2016,08,17,08,51,13.30
2016,08,17,08,52,13.30
2016,08,17,08,53,13.30
2016,08,17,08,54,13.30
2016,08,17,08,55,13.30
2016,08,17,08,56,13.30
2016,08,17,08,57,13.40
2016,08,17,08,58,13.50
2016,08,17,08,59,13.60
2016,08,17,09,00,13.70
2016,08,17,09,01,13.70
2016,08,17,09,02,13.70
2016,08,17,09,03,13.70
2016,08,17,09,04,13.80
2016,08,17,09,05,13.90
2016,08,17,09,06,14.00
2016,08,17,09,07,14.20
2016,08,17,09,08,14.30
2016,08,17,09,09,14.40
2016,08,17,09,10,14.50
2016,08,17,09,11,14.60
2016,08,17,09,12,14.60
2016,08,17,09,13,14.60
2016,08,17,09,14,14.60
2016,08,17,09,15,14.60
2016,08,17,09,16,14.60
2016,08,17,09,17,14.60
2016,08,17,09,18,14.60
2016,08,17,09,19,14.60
2016,08,17,09,20,14.60
2016,08,17,09,21,14.70
2016,08,17,09,22,14.80
2016,08,17,09,23,14.80
2016,08,17,09,24,14.90
2016,08,17,09,25,15.00
2016,08,17,09,26,15.10
2016,08,17,09,27,15.10
2016,08,17,09,28,15.10
2016,08,17,09,29,15.20
2016,08,17,09,30,15.10
2016,08,17,09,31,15.10
2016,08,17,09,32,15.00
2016,08,17,09,33,15.00
2016,08,17,09,34,15.00
2016,08,17,09,35,15.00
2016,08,17,09,36,15.10
2016,08,17,09,37,15.10
2016,08,17,09,38,15.10
2016,08,17,09,39,15.10
2016,08,17,09,40,15.10
2016,08,17,09,41,15.10
2016,08,17,09,42,15.00
2016,08,17,09,43,15.10
2016,08,17,09,44,15.10
2016,08,17,09,45,15.10
2016,08,17,09,46,15.10
2016,08,17,09,47,15.10
2016,08,17,09,48,15.10
2016,08,17,09,49,15.10
2016,08,17,09,50,15.10
2016,08,17,09,51,15.20
2016,08,17,09,52,15.30
2016,08,17,09,53,15.40
2016,08,17,09,54,15.50
2016,08,17,09,55,15.70
2016,08,17,09,56,15.80
2016,08,17,09,57,16.00
2016,08,17,09,58,16.10
2016,08,17,09,59,16.20
2016,08,17,10,00,16.20
2016,08,17,10,01,16.20
2016,08,17,10,02,16.20
2016,08,17,10,03,16.10
2016,08,17,10,04,16.00
2016,08,17,10,05,16.00
2016,08,17,10,06,16.00
2016,08,17,10,07,16.00
2016,08,17,10,08,15.90
2016,08,17,10,09,15.90
2016,08,17,10,10,15.90
2016,08,17,10,11,15.90
2016,08,17,10,12,15.80
2016,08,17,10,13,15.80
2016,08,17,10,14,15.90
2016,08,17,10,15,16.00
2016,08,17,10,16,16.20
2016,08,17,10,17,16.20
2016,08,17,10,18,16.30
2016,08,17,10,19,16.30
2016,08,17,10,20,16.30
2016,08,17,10,21,16.40
2016,08,17,10,22,16.60
2016,08,17,10,23,16.70
2016,08,17,10,24,16.80
2016,08,17,10,25,16.90
2016,08,17,10,26,16.90
2016,08,17,10,27,17.00
2016,08,17,10,28,17.00
2016,08,17,10,29,17.10
2016,08,17,10,30,17.20
2016,08,17,10,31,17.30
2016,08,17,10,32,17.40
2016,08,17,10,33,17.50
2016,08,17,10,34,17.60
2016,08,17,10,35,17.60
2016,08,17,10,36,17.60
2016,08,17,10,37,17.60
2016,08,17,10,38,17.60
2016,08,17,10,39,17.50
2016,08,17,10,40,17.60
2016,08,17,10,41,17.60
2016,08,17,10,42,17.70
2016,08,17,10,43,17.70
2016,08,17,10,44,17.70
2016,08,17,10,45,17.70
2016,08,17,10,46,17.80
2016,08,17,10,47,17.90
2016,08,17,10,48,18.00
2016,08,17,10,49,18.20
2016,08,17,10,50,18.30
2016,08,17,10,51,18.40
2016,08,17,10,52,18.50
2016,08,17,10,53,18.60
2016,08,17,10,54,18.80
2016,08,17,10,55,18.90
2016,08,17,10,56,18.90
2016,08,17,10,57,18.90
2016,08,17,10,58,18.90
2016,08,17,10,59,19.00
2016,08,17,11,00,19.00
2016,08,17,11,01,19.10
2016,08,17,11,02,19.20
2016,08,17,11,03,19.20
2016,08,17,11,04,19.10
2016,08,17,11,05,18.90
2016,08,17,11,06,18.80
2016,08,17,11,07,18.70
2016,08,17,11,08,18.60
2016,08,17,11,09,18.50
2016,08,17,11,10,18.40
2016,08,17,11,11,18.30
2016,08,17,11,12,18.20
2016,08,17,11,13,18.20
2016,08,17,11,14,18.10
2016,08,17,11,15,18.10
2016,08,17,11,16,18.10
2016,08,17,11,17,18.00
2016,08,17,11,18,17.90
2016,08,17,11,19,17.90
2016,08,17,11,20,17.90
2016,08,17,11,21,17.80
2016,08,17,11,22,17.80
2016,08,17,11,23,17.70
2016,08,17,11,24,17.60
2016,08,17,11,25,17.40
2016,08,17,11,26,17.30
2016,08,17,11,27,17.30
2016,08,17,11,28,17.30
2016,08,17,11,29,17.30
2016,08,17,11,30,17.30
2016,08,17,11,31,17.30
2016,08,17,11,32,17.30
2016,08,17,11,33,17.30
2016,08,17,11,34,17.20
2016,08,17,11,35,17.20
2016,08,17,11,36,17.20
2016,08,17,11,37,17.20
2016,08,17,11,38,17.20
2016,08,17,11,39,17.20
2016,08,17,11,40,17.20
2016,08,17,11,41,17.20
2016,08,17,11,42,17.20
2016,08,17,11,43,17.30
2016,08,17,11,44,17.50
2016,08,17,11,45,17.50
2016,08,17,11,46,17.40
2016,08,17,11,47,17.40
2016,08,17,11,48,17.40
2016,08,17,11,49,17.30
2016,08,17,11,50,17.30
2016,08,17,11,51,17.40
2016,08,17,11,52,17.40
2016,08,17,11,53,17.50
2016,08,17,11,54,17.50
2016,08,17,11,55,17.40
2016,08,17,11,56,17.40
2016,08,17,11,57,17.30
2016,08,17,11,58,17.20
2016,08,17,11,59,17.10
2016,08,17,12,00,17.20
2016,08,17,12,01,17.20
2016,08,17,12,02,17.30
2016,08,17,12,03,17.30
2016,08,17,12,04,17.30
2016,08,17,12,05,17.30
2016,08,17,12,06,17.20
2016,08,17,12,07,17.20
2016,08,17,12,08,17.20
2016,08,17,12,09,17.20
2016,08,17,12,10,17.20
2016,08,17,12,11,17.20
2016,08,17,12,12,17.20
2016,08,17,12,13,17.20
2016,08,17,12,14,17.30
2016,08,17,12,15,17.30
2016,08,17,12,16,17.30
2016,08,17,12,17,17.30
2016,08,17,12,18,17.20
2016,08,17,12,19,17.20
2016,08,17,12,20,17.40
2016,08,17,12,21,17.40
2016,08,17,12,22,17.40
2016,08,17,12,23,17.40
2016,08,17,12,24,17.50
2016,08,17,12,25,17.40
2016,08,17,12,26,17.40
2016,08,17,12,27,17.40
2016,08,17,12,28,17.40
2016,08,17,12,29,17.40
2016,08,17,12,30,17.50
2016,08,17,12,31,17.60
2016,08,17,12,32,17.70
2016,08,17,12,33,17.80
2016,08,17,12,34,18.00
2016,08,17,12,35,18.10
2016,08,17,12,36,18.20
2016,08,17,12,37,18.10
2016,08,17,12,38,18.10
2016,08,17,12,39,18.00
2016,08,17,12,40,17.90
2016,08,17,12,41,17.90
2016,08,17,12,42,17.90
2016,08,17,12,43,17.90
2016,08,17,12,44,17.90
2016,08,17,12,45,17.90
2016,08,17,12,46,17.80
2016,08,17,12,47,17.80
2016,08,17,12,48,17.80
2016,08,17,12,49,17.80
2016,08,17,12,50,17.90
2016,08,17,12,51,18.00
2016,08,17,12,52,18.10
2016,08,17,12,53,18.10
2016,08,17,12,54,18.20
2016,08,17,12,55,18.10
2016,08,17,12,56,18.10
2016,08,17,12,57,18.10
2016,08,17,12,58,18.20
2016,08,17,12,59,18.20
2016,08,17,13,00,18.30
2016,08,17,13,01,18.30
2016,08,17,13,02,18.30
2016,08,17,13,03,18.30
2016,08,17,13,04,18.30
2016,08,17,13,05,18.30
2016,08,17,13,06,18.40
2016,08,17,13,07,18.50
2016,08,17,13,08,18.50
2016,08,17,13,09,18.60
2016,08,17,13,10,18.80
2016,08,17,13,11,19.00
2016,08,17,13,12,19.10
2016,08,17,13,13,19.20
2016,08,17,13,14,19.30
2016,08,17,13,15,19.50
2016,08,17,13,16,19.70
2016,08,17,13,17,19.90
2016,08,17,13,18,20.00
2016,08,17,13,19,20.00
2016,08,17,13,20,20.10
2016,08,17,13,21,20.20
2016,08,17,13,22,20.20
2016,08,17,13,23,20.30
2016,08,17,13,24,20.40
2016,08,17,13,25,20.50
2016,08,17,13,26,20.70
2016,08,17,13,27,20.80
2016,08,17,13,28,20.90
2016,08,17,13,29,20.90
2016,08,17,13,30,20.90
2016,08,17,13,31,20.90
2016,08,17,13,32,20.90
2016,08,17,13,33,20.90
2016,08,17,13,34,20.90
2016,08,17,13,35,21.00
2016,08,17,13,36,21.00
2016,08,17,13,37,21.10
2016,08,17,13,38,21.20
2016,08,17,13,39,21.40
2016,08,17,13,40,21.40
2016,08,17,13,41,21.50
2016,08,17,13,42,21.60
2016,08,17,13,43,21.70
2016,08,17,13,44,21.70
2016,08,17,13,45,21.70
2016,08,17,13,46,21.70
2016,08,17,13,47,21.70
2016,08,17,13,48,21.70
2016,08,17,13,49,21.70
2016,08,17,13,50,21.60
2016,08,17,13,51,21.50
2016,08,17,13,52,21.50
2016,08,17,13,53,21.40
2016,08,17,13,54,21.40
2016,08,17,13,55,21.40
2016,08,17,13,56,21.30
2016,08,17,13,57,21.10
2016,08,17,13,58,20.90
2016,08,17,13,59,20.80
2016,08,17,14,00,20.70
2016,08,17,14,01,20.70
2016,08,17,14,02,20.80
2016,08,17,14,03,20.70
2016,08,17,14,04,20.70
2016,08,17,14,05,20.80
2016,08,17,14,06,20.80
2016,08,17,14,07,20.80
2016,08,17,14,08,20.80
2016,08,17,14,09,20.60
2016,08,17,14,10,20.40
2016,08,17,14,11,20.20
2016,08,17,14,12,20.10
2016,08,17,14,13,20.00
2016,08,17,14,14,19.90
2016,08,17,14,15,19.90
2016,08,17,14,16,19.90
2016,08,17,14,17,20.00
2016,08,17,14,18,20.00
2016,08,17,14,19,20.10
2016,08,17,14,20,20.00
2016,08,17,14,21,20.00
2016,08,17,14,22,19.90
2016,08,17,14,23,19.80
2016,08,17,14,24,19.80
2016,08,17,14,25,19.80
2016,08,17,14,26,19.80
2016,08,17,14,27,19.80
2016,08,17,14,28,19.80
2016,08,17,14,29,19.80
2016,08,17,14,30,19.80
2016,08,17,14,31,19.80
2016,08,17,14,32,19.80
2016,08,17,14,33,19.90
2016,08,17,14,34,19.90
2016,08,17,14,35,19.90
2016,08,17,14,36,20.00
2016,08,17,14,37,20.00
2016,08,17,14,38,20.10
2016,08,17,14,39,20.10
2016,08,17,14,40,20.20
2016,08,17,14,41,20.20
2016,08,17,14,42,20.20
2016,08,17,14,43,20.20
2016,08,17,14,44,20.10
2016,08,17,14,45,20.00
2016,08,17,14,46,20.00
2016,08,17,14,47,20.00
2016,08,17,14,48,20.10
2016,08,17,14,49,20.20
2016,08,17,14,50,20.30
2016,08,17,14,51,20.40
2016,08,17,14,52,20.50
2016,08,17,14,53,20.50
2016,08,17,14,54,20.60
2016,08,17,14,55,20.60
2016,08,17,14,56,20.60
2016,08,17,14,57,20.60
2016,08,17,14,58,20.60
2016,08,17,14,59,20.50
2016,08,17,15,00,20.40
2016,08,17,15,01,20.30
2016,08,17,15,02,20.20
2016,08,17,15,03,20.30
2016,08,17,15,04,20.30
2016,08,17,15,05,20.40
2016,08,17,15,06,20.40
2016,08,17,15,07,20.30
2016,08,17,15,08,20.30
2016,08,17,15,09,20.30
2016,08,17,15,10,20.20
2016,08,17,15,11,20.20
2016,08,17,15,12,20.20
2016,08,17,15,13,20.30
2016,08,17,15,14,20.30
2016,08,17,15,15,20.30
2016,08,17,15,16,20.30
2016,08,17,15,17,20.30
2016,08,17,15,18,20.30
2016,08,17,15,19,20.30
2016,08,17,15,20,20.30
2016,08,17,15,21,20.20
2016,08,17,15,22,20.20
2016,08,17,15,23,20.20
2016,08,17,15,24,20.20
2016,08,17,15,25,20.20
2016,08,17,15,26,20.00
2016,08,17,15,27,20.00
2016,08,17,15,28,20.00
2016,08,17,15,29,20.00
2016,08,17,15,30,20.10
2016,08,17,15,31,20.10
2016,08,17,15,32,20.00
2016,08,17,15,33,20.00
2016,08,17,15,34,20.00
2016,08,17,15,35,19.90
2016,08,17,15,36,19.80
2016,08,17,15,37,19.70
2016,08,17,15,38,19.50
2016,08,17,15,39,19.40
2016,08,17,15,40,19.30
2016,08,17,15,41,19.30
2016,08,17,15,42,19.30
2016,08,17,15,43,19.30
2016,08,17,15,44,19.30
2016,08,17,15,45,19.40
2016,08,17,15,46,19.40
2016,08,17,15,47,19.40
2016,08,17,15,48,19.40
2016,08,17,15,49,19.40
2016,08,17,15,50,19.30
2016,08,17,15,51,19.30
2016,08,17,15,52,19.30
2016,08,17,15,53,19.30
2016,08,17,15,54,19.30
2016,08,17,15,55,19.20
2016,08,17,15,56,19.20
2016,08,17,15,57,19.10
2016,08,17,15,58,19.10
2016,08,17,15,59,19.10
2016,08,17,16,00,19.20
2016,08,17,16,01,19.20
2016,08,17,16,02,19.30
2016,08,17,16,03,19.30
2016,08,17,16,04,19.30
2016,08,17,16,05,19.30
2016,08,17,16,06,19.20
2016,08,17,16,07,19.20
2016,08,17,16,08,19.10
2016,08,17,16,09,19.10
2016,08,17,16,10,19.20
2016,08,17,16,11,19.10
2016,08,17,16,12,19.10
2016,08,17,16,13,19.10
2016,08,17,16,14,19.10
2016,08,17,16,15,19.10
2016,08,17,16,16,19.20
2016,08,17,16,17,19.30
2016,08,17,16,18,19.30
2016,08,17,16,19,19.40
2016,08,17,16,20,19.50
2016,08,17,16,21,19.50
2016,08,17,16,22,19.60
2016,08,17,16,23,19.60
2016,08,17,16,24,19.60
2016,08,17,16,25,19.60
2016,08,17,16,26,19.60
2016,08,17,16,27,19.60
2016,08,17,16,28,19.60
2016,08,17,16,29,19.60
2016,08,17,16,30,19.70
2016,08,17,16,31,19.70
2016,08,17,16,32,19.70
2016,08,17,16,33,19.80
2016,08,17,16,34,19.70
2016,08,17,16,35,19.70
2016,08,17,16,36,19.70
2016,08,17,16,37,19.70
2016,08,17,16,38,19.80
2016,08,17,16,39,19.80
2016,08,17,16,40,19.80
2016,08,17,16,41,19.80
2016,08,17,16,42,19.70
2016,08,17,16,43,19.70
2016,08,17,16,44,19.60
2016,08,17,16,45,19.60
2016,08,17,16,46,19.60
2016,08,17,16,47,19.60
2016,08,17,16,48,19.60
2016,08,17,16,49,19.60
2016,08,17,16,50,19.60
2016,08,17,16,51,19.60
2016,08,17,16,52,19.70
2016,08,17,16,53,19.70
2016,08,17,16,54,19.70
2016,08,17,16,55,19.70
2016,08,17,16,56,19.70
2016,08,17,16,57,19.60
2016,08,17,16,58,19.60
2016,08,17,16,59,19.50
2016,08,17,17,00,19.50
2016,08,17,17,01,19.50
2016,08,17,17,02,19.60
2016,08,17,17,03,19.60
2016,08,17,17,04,19.60
2016,08,17,17,05,19.50
2016,08,17,17,06,19.50
2016,08,17,17,07,19.40
2016,08,17,17,08,19.50
2016,08,17,17,09,19.50
2016,08,17,17,10,19.50
2016,08,17,17,11,19.50
2016,08,17,17,12,19.50
2016,08,17,17,13,19.50
2016,08,17,17,14,19.50
2016,08,17,17,15,19.40
2016,08,17,17,16,19.40
2016,08,17,17,17,19.30
2016,08,17,17,18,19.30
2016,08,17,17,19,19.30